Weather History for K5M9 - February, 2014

Change the Weather History Date:

Sunday, February 2, 2014

  Actual Average (KPAH) Record (KPAH)
Temperature  
Mean Temperature 28 °F 36 °F  
Max Temperature 34 °F 45 °F 66 °F (1997)
Min Temperature 23 °F 27 °F -14 °F (1951)
Degree Days  
Heating Degree Days 36 29  
Month to date heating degree days 58  
Since 1 July heating degree days 2631  
Cooling Degree Days 0 0  
Month to date cooling degree days 0  
Year to date cooling degree days 0  
Moisture  
Dew Point 28 °F    
Average Humidity 96    
Maximum Humidity 99    
Minimum Humidity 88    
Precipitation  
Precipitation 0.00 in 0.14 in 1.79 in (1989)
Month to date precipitation 0.29  
Year to date precipitation 3.97  
Snow  
Snow 0.00 in 0.20 in 6.20 in (2014)
Month to date snowfall 0.3  
Since 1 July snowfall 5.6  
Snow Depth -    
Sea Level Pressure  
Sea Level Pressure 30.13 in    
Wind  
Wind Speed 10 mph (North)    
Max Wind Speed 14 mph    
Max Gust Speed 24 mph    
Visibility 4 miles    
Events Rain , Snow    
T = Trace of Precipitation, MM = Missing Value Source: NWS Daily Summary

Daily Weather History Graph

Daily Weather History Graph

Search for Another Location

Airport or City:

Trip Planner

Search our weather history database for the weather conditions in past years. The results will help you decide how hot, cold, wet, or windy it might be!

Date:

Astronomy

Feb. 02, 2014 Rise Set
Actual Time 6:54 AM CST 5:18 PM CST
Civil Twilight 6:27 AM CST 5:45 PM CST
Nautical Twilight 5:56 AM CST 6:16 PM CST
Astronomical Twilight 5:25 AM CST 6:47 PM CST
Moon 8:26 AM CST (2/2) 8:55 PM CST (2/2)
Length of Visible Light 11h 18m
Length of Day
10h 23m
Waxing Crescent, 11% of the Moon is Illuminated
Feb 2
Waxing Crescent
Feb 6
First Quarter
Feb 14
Full
Feb 22
Last Quarter
Mar 1
New

Hourly Weather History & Observations

Time (CST) Temp. Windchill Dew Point Humidity Pressure Visibility Wind Dir Wind Speed Gust Speed Precip Events Conditions
12:15 AM 34.7 °F 27.5 °F 34.3 °F 99% 29.96 in 5.0 mi North 9.2 mph - N/A Rain Rain
12:35 AM 34.7 °F 27.5 °F 34.2 °F 98% 29.97 in 5.0 mi North 9.2 mph - N/A   Drizzle
12:55 AM 34.2 °F 26.8 °F 34.0 °F 99% 29.97 in 2.5 mi North 9.2 mph - N/A Snow Snow
1:15 AM 33.8 °F 24.8 °F 33.4 °F 99% 29.96 in 5.0 mi North 12.7 mph 16.1 mph N/A Rain Light Rain
1:35 AM 33.3 °F 24.6 °F 32.9 °F 99% 29.98 in 4.0 mi North 11.5 mph 16.1 mph N/A Rain Rain
1:55 AM 32.9 °F 25.9 °F 32.4 °F 98% 29.99 in 3.0 mi North 8.1 mph 16.1 mph N/A Rain Rain
2:15 AM 32.5 °F 24.2 °F 32.2 °F 99% 29.99 in 4.0 mi North 10.4 mph 16.1 mph N/A   Overcast
2:35 AM 32.2 °F 23.2 °F 32.0 °F 99% 30.01 in 4.0 mi North 11.5 mph 24.2 mph N/A Rain Rain
2:55 AM 32.0 °F 23.0 °F 31.8 °F 99% 30.00 in 3.0 mi North 11.5 mph 18.4 mph N/A   Overcast
3:15 AM 32.0 °F 24.8 °F 31.6 °F 99% 30.02 in 5.0 mi North 8.1 mph 16.1 mph N/A Snow Light Snow
3:35 AM 32.0 °F 23.0 °F 31.6 °F 99% 30.04 in 3.0 mi North 11.5 mph 16.1 mph N/A Snow Light Snow
3:55 AM 32.0 °F 23.6 °F 31.5 °F 98% 30.02 in 4.0 mi North 10.4 mph 18.4 mph N/A Snow Light Snow
4:15 AM 31.8 °F 22.8 °F 31.1 °F 97% 30.03 in 7.0 mi North 11.5 mph 16.1 mph N/A   Overcast
4:35 AM 31.6 °F 22.6 °F 31.1 °F 98% 30.05 in 4.0 mi North 11.5 mph 19.6 mph N/A   Overcast
4:55 AM 31.6 °F 24.4 °F 31.1 °F 98% 30.05 in 7.0 mi North 8.1 mph 17.3 mph N/A   Overcast
5:15 AM 31.6 °F 23.7 °F 31.1 °F 98% 30.04 in 7.0 mi North 9.2 mph 16.1 mph N/A   Overcast
5:35 AM 31.6 °F 23.1 °F 30.9 °F 97% 30.07 in 7.0 mi North 10.4 mph - N/A   Overcast
5:55 AM 31.6 °F 22.6 °F 30.9 °F 97% 30.07 in 7.0 mi North 11.5 mph - N/A   Overcast
6:15 AM 31.5 °F 22.3 °F 30.7 °F 97% 30.08 in 5.0 mi North 11.5 mph - N/A   Overcast
6:35 AM 31.1 °F 23.1 °F 30.2 °F 96% 30.10 in 5.0 mi North 9.2 mph 16.1 mph N/A   Overcast
6:55 AM 30.9 °F 22.8 °F 30.2 °F 97% 30.11 in 4.0 mi North 9.2 mph - N/A   Overcast
7:15 AM 30.9 °F 21.2 °F 30.2 °F 97% 30.11 in 4.0 mi North 12.7 mph 17.3 mph N/A   Overcast
7:35 AM 30.6 °F 22.4 °F 29.8 °F 97% 30.14 in 4.0 mi North 9.2 mph 17.3 mph N/A   Overcast
7:55 AM 30.6 °F 20.7 °F 29.7 °F 96% 30.14 in 4.0 mi North 12.7 mph 18.4 mph N/A   Overcast
8:15 AM 30.6 °F 24.7 °F 29.3 °F 95% 30.16 in 5.0 mi North 5.8 mph - N/A   Overcast
8:35 AM 30.2 °F 20.8 °F 29.1 °F 96% 30.17 in 5.0 mi NNW 11.5 mph - N/A   Overcast
8:55 AM 30.2 °F 21.9 °F 28.9 °F 95% 30.17 in 5.0 mi North 9.2 mph - N/A   Overcast
9:15 AM 30.2 °F 21.3 °F 28.8 °F 94% 30.16 in 5.0 mi North 10.4 mph - N/A   Overcast
9:35 AM 30.2 °F 21.3 °F 28.6 °F 94% 30.20 in 5.0 mi NNW 10.4 mph - N/A   Overcast
9:55 AM 30.0 °F 21.1 °F 28.2 °F 93% 30.21 in 7.0 mi North 10.4 mph 16.1 mph N/A   Overcast
10:15 AM 30.0 °F 21.7 °F 27.9 °F 92% 30.19 in 7.0 mi North 9.2 mph - N/A   Overcast
10:35 AM 30.2 °F 21.3 °F 28.0 °F 92% 30.19 in 7.0 mi North 10.4 mph - N/A   Overcast
10:55 AM 30.6 °F 21.8 °F 28.2 °F 91% 30.19 in 7.0 mi North 10.4 mph - N/A   Overcast
11:15 AM 30.2 °F 20.2 °F 28.0 °F 92% 30.15 in 7.0 mi North 12.7 mph - N/A   Overcast
11:35 AM 30.6 °F 20.7 °F 28.0 °F 90% 30.15 in 7.0 mi North 12.7 mph 17.3 mph N/A   Overcast
11:55 AM 30.7 °F 24.9 °F 27.7 °F 88% 30.18 in 10.0 mi North 5.8 mph 16.1 mph N/A   Overcast
12:15 PM 30.6 °F 22.4 °F 27.5 °F 88% 30.19 in 10.0 mi NNW 9.2 mph - N/A   Overcast
12:35 PM 30.4 °F 22.2 °F 28.0 °F 91% 30.18 in 4.0 mi North 9.2 mph - N/A   Overcast
12:55 PM 29.7 °F 21.3 °F 28.0 °F 94% 30.16 in 4.0 mi North 9.2 mph - N/A Snow Light Snow
1:15 PM 29.7 °F 21.3 °F 27.9 °F 93% 30.15 in 4.0 mi North 9.2 mph - N/A   Overcast
1:35 PM 29.3 °F 19.6 °F 28.4 °F 96% 30.13 in 3.0 mi North 11.5 mph - N/A   Overcast
1:55 PM 29.3 °F 20.2 °F 28.2 °F 96% 30.16 in 4.0 mi North 10.4 mph 18.4 mph N/A   Overcast
2:15 PM 29.1 °F 20.0 °F 27.5 °F 94% 30.20 in 5.0 mi North 10.4 mph 19.6 mph N/A Snow Light Snow
2:35 PM 28.0 °F 18.6 °F 27.0 °F 96% 30.16 in 0.5 mi North 10.4 mph 19.6 mph N/A Snow Snow
2:55 PM 27.5 °F 17.4 °F 26.6 °F 96% 30.16 in 0.5 mi North 11.5 mph - N/A Snow Light Snow
3:15 PM 27.3 °F 17.7 °F 26.2 °F 96% 30.17 in 2.0 mi NNE 10.4 mph 16.1 mph N/A Snow Light Snow
3:35 PM 27.0 °F 19.5 °F 25.7 °F 95% 30.17 in 1.2 mi North 6.9 mph - N/A Snow Light Snow
3:55 PM 27.0 °F 18.7 °F 25.7 °F 95% 30.17 in 1.5 mi North 8.1 mph - N/A Snow Light Snow
4:15 PM 27.0 °F 17.3 °F 25.7 °F 95% 30.16 in 0.8 mi North 10.4 mph - N/A Snow Light Snow
4:35 PM 26.4 °F 16.0 °F 25.3 °F 96% 30.17 in 1.5 mi North 11.5 mph 19.6 mph N/A Snow Light Snow
4:55 PM 26.6 °F 17.5 °F 25.3 °F 95% 30.17 in 2.0 mi North 9.2 mph 16.1 mph N/A Snow Light Snow
5:15 PM 26.6 °F 17.5 °F 25.5 °F 96% 30.20 in 1.5 mi North 9.2 mph - N/A Snow Light Snow
5:35 PM 26.1 °F 15.6 °F 25.0 °F 96% 30.18 in 1.8 mi North 11.5 mph - N/A Snow Light Snow
5:55 PM 26.1 °F 16.2 °F 25.0 °F 96% 30.17 in 1.0 mi NNE 10.4 mph - N/A Snow Snow
6:15 PM 26.1 °F 16.2 °F 25.2 °F 96% 30.18 in 1.5 mi North 10.4 mph - N/A Snow Light Snow
6:35 PM 26.1 °F 14.5 °F 24.8 °F 95% 30.15 in 4.0 mi NNE 13.8 mph - N/A Snow Light Snow
6:55 PM 26.4 °F 15.5 °F 25.0 °F 94% 30.14 in 5.0 mi North 12.7 mph 17.3 mph N/A Snow Light Snow
7:15 PM 26.1 °F 15.6 °F 24.6 °F 94% 30.15 in 5.0 mi North 11.5 mph 18.4 mph N/A Snow Light Snow
7:35 PM 26.1 °F 15.0 °F 24.8 °F 95% 30.15 in 2.5 mi North 12.7 mph 16.1 mph N/A Snow Light Snow
7:55 PM 25.7 °F 15.7 °F 24.6 °F 96% 30.16 in 1.5 mi North 10.4 mph 16.1 mph N/A Snow Light Snow
8:15 PM 25.7 °F 15.1 °F 24.6 °F 96% 30.16 in 1.5 mi North 11.5 mph 17.3 mph N/A Snow Light Snow
8:35 PM 25.5 °F 16.2 °F 24.4 °F 96% 30.19 in 2.5 mi North 9.2 mph - N/A Snow Light Snow
8:55 PM 25.3 °F 16.0 °F 23.9 °F 94% 30.19 in 1.5 mi North 9.2 mph - N/A Snow Light Snow
9:15 PM 25.2 °F 17.3 °F 23.9 °F 95% 30.19 in 1.2 mi North 6.9 mph - N/A Snow Light Snow
9:35 PM 24.8 °F 14.6 °F 23.7 °F 96% 30.18 in 1.0 mi North 10.4 mph - N/A Snow Light Snow
9:55 PM 24.4 °F 15.6 °F 23.5 °F 96% 30.15 in 1.2 mi North 8.1 mph - N/A Snow Light Snow
10:15 PM 24.4 °F 13.0 °F 23.4 °F 96% 30.14 in 2.5 mi North 12.7 mph 17.3 mph N/A Snow Light Snow
10:35 PM 24.4 °F 14.9 °F 23.0 °F 94% 30.16 in 3.0 mi North 9.2 mph 17.3 mph N/A Snow Light Snow
10:55 PM 24.4 °F 15.6 °F 23.0 °F 94% 30.18 in 5.0 mi North 8.1 mph - N/A Snow Light Snow
11:15 PM 24.1 °F 15.2 °F 23.0 °F 96% 30.18 in 2.0 mi North 8.1 mph - N/A Snow Light Snow
11:35 PM 23.9 °F 14.2 °F 22.6 °F 95% 30.15 in 2.0 mi North 9.2 mph - N/A Snow Light Snow
11:55 PM 23.9 °F 12.3 °F 22.6 °F 95% 30.14 in 3.0 mi North 12.7 mph - N/A Snow Light Snow